Year,Month,Day,Hour,Minute,Value (Times are PST for windgust in km/hr)
2006,12,15,00,00,8.10
2006,12,15,00,01,4.80
2006,12,15,00,02,4.80
2006,12,15,00,03,14.50
2006,12,15,00,04,16.10
2006,12,15,00,05,9.60
2006,12,15,00,06,12.90
2006,12,15,00,07,11.30
2006,12,15,00,08,8.10
2006,12,15,00,09,6.40
2006,12,15,00,10,6.40
2006,12,15,00,11,9.60
2006,12,15,00,12,9.60
2006,12,15,00,13,14.50
2006,12,15,00,14,24.20
2006,12,15,00,15,14.50
2006,12,15,00,16,9.60
2006,12,15,00,17,9.60
2006,12,15,00,18,11.30
2006,12,15,00,19,8.10
2006,12,15,00,20,6.40
2006,12,15,00,21,8.10
2006,12,15,00,22,16.10
2006,12,15,00,23,12.90
2006,12,15,00,24,16.10
2006,12,15,00,25,8.10
2006,12,15,00,26,9.60
2006,12,15,00,27,9.60
2006,12,15,00,28,19.30
2006,12,15,00,29,12.90
2006,12,15,00,30,16.10
2006,12,15,00,31,20.90
2006,12,15,00,32,25.70
2006,12,15,00,33,30.60
2006,12,15,00,34,20.90
2006,12,15,00,35,20.90
2006,12,15,00,36,29.00
2006,12,15,00,37,32.20
2006,12,15,00,38,32.20
2006,12,15,00,39,29.00
2006,12,15,00,40,41.80
2006,12,15,00,41,40.20
2006,12,15,00,42,33.80
2006,12,15,00,43,19.30
2006,12,15,00,44,22.50
2006,12,15,00,45,38.60
2006,12,15,00,46,30.60
2006,12,15,00,47,33.80
2006,12,15,00,48,37.00
2006,12,15,00,49,27.40
2006,12,15,00,50,37.00
2006,12,15,00,51,33.80
2006,12,15,00,52,33.80
2006,12,15,00,53,37.00
2006,12,15,00,54,37.00
2006,12,15,00,55,30.60
2006,12,15,00,56,20.90
2006,12,15,00,57,51.50
2006,12,15,00,58,48.30
2006,12,15,00,59,46.70
2006,12,15,01,00,38.60
2006,12,15,01,01,40.20
2006,12,15,01,02,40.20
2006,12,15,01,03,49.90
2006,12,15,01,04,45.10
2006,12,15,01,05,53.10
2006,12,15,01,06,45.10
2006,12,15,01,07,38.60
2006,12,15,01,08,37.00
2006,12,15,01,09,43.50
2006,12,15,01,10,49.90
2006,12,15,01,11,51.50
2006,12,15,01,12,38.60
2006,12,15,01,13,33.80
2006,12,15,01,14,45.10
2006,12,15,01,15,49.90
2006,12,15,01,16,53.10
2006,12,15,01,17,46.70
2006,12,15,01,18,32.20
2006,12,15,01,19,43.50
2006,12,15,01,20,48.30
2006,12,15,01,21,49.90
2006,12,15,01,22,57.90
2006,12,15,01,23,51.50
2006,12,15,01,24,41.80
2006,12,15,01,25,30.60
2006,12,15,01,26,49.90
2006,12,15,01,27,43.50
2006,12,15,01,28,32.20
2006,12,15,01,29,43.50
2006,12,15,01,30,45.10
2006,12,15,01,31,45.10
2006,12,15,01,32,49.90
2006,12,15,01,33,48.30
2006,12,15,01,34,53.10
2006,12,15,01,35,25.70
2006,12,15,01,36,57.90
2006,12,15,01,37,64.40
2006,12,15,01,38,33.80
2006,12,15,01,39,46.70
2006,12,15,01,40,40.20
2006,12,15,01,41,53.10
2006,12,15,01,42,38.60
2006,12,15,01,43,43.50
2006,12,15,01,44,67.60
2006,12,15,01,45,51.50
2006,12,15,01,46,57.90
2006,12,15,01,47,49.90
2006,12,15,01,48,66.00
2006,12,15,01,49,57.90
2006,12,15,01,50,66.00
2006,12,15,01,51,62.70
2006,12,15,01,52,53.10
2006,12,15,01,53,45.10
2006,12,15,01,54,38.60
2006,12,15,01,55,61.20
2006,12,15,01,56,53.10
2006,12,15,01,57,51.50
2006,12,15,01,58,37.00
2006,12,15,01,59,41.80
2006,12,15,02,00,30.60
2006,12,15,02,01,43.50
2006,12,15,02,02,37.00
2006,12,15,02,03,54.70
2006,12,15,02,04,40.20
2006,12,15,02,05,45.10
2006,12,15,02,06,59.50
2006,12,15,02,07,45.10
2006,12,15,02,08,62.70
2006,12,15,02,09,53.10
2006,12,15,02,10,53.10
2006,12,15,02,11,51.50
2006,12,15,02,12,51.50
2006,12,15,02,13,33.80
2006,12,15,02,14,66.00
2006,12,15,02,15,64.40
2006,12,15,02,16,62.70
2006,12,15,02,17,53.10
2006,12,15,02,18,38.60
2006,12,15,02,19,64.40
2006,12,15,02,20,48.30
2006,12,15,02,21,66.00
2006,12,15,02,22,54.70
2006,12,15,02,23,48.30
2006,12,15,02,24,48.30
2006,12,15,02,25,56.30
2006,12,15,02,26,59.50
2006,12,15,02,27,41.80
2006,12,15,02,28,45.10
2006,12,15,02,29,51.50
2006,12,15,02,30,57.90
2006,12,15,02,31,56.30
2006,12,15,02,32,70.80
2006,12,15,02,33,67.60
2006,12,15,02,34,69.20
2006,12,15,02,35,53.10
2006,12,15,02,36,59.50
2006,12,15,02,37,67.60
2006,12,15,02,38,48.30
2006,12,15,02,39,51.50
2006,12,15,02,40,64.40
2006,12,15,02,41,51.50
2006,12,15,02,42,57.90
2006,12,15,02,43,49.90
2006,12,15,02,44,48.30
2006,12,15,02,45,64.40
2006,12,15,02,46,45.10
2006,12,15,02,47,43.50
2006,12,15,02,48,67.60
2006,12,15,02,49,62.70
2006,12,15,02,50,64.40
2006,12,15,02,51,32.20
2006,12,15,02,52,66.00
2006,12,15,02,53,59.50
2006,12,15,02,54,64.40
2006,12,15,02,55,51.50
2006,12,15,02,56,74.00
2006,12,15,02,57,57.90
2006,12,15,02,58,78.80
2006,12,15,02,59,75.60
2006,12,15,03,00,54.70
2006,12,15,03,01,56.30
2006,12,15,03,02,64.40
2006,12,15,03,03,66.00
2006,12,15,03,04,54.70
2006,12,15,03,05,46.70
2006,12,15,03,06,57.90
2006,12,15,03,07,59.50
2006,12,15,03,08,49.90
2006,12,15,03,09,53.10
2006,12,15,03,10,49.90
2006,12,15,03,11,62.70
2006,12,15,03,12,62.70
2006,12,15,03,13,49.90
2006,12,15,03,14,46.70
2006,12,15,03,15,64.40
2006,12,15,03,16,48.30
2006,12,15,03,17,53.10
2006,12,15,03,18,49.90
2006,12,15,03,19,59.50
2006,12,15,03,20,38.60
2006,12,15,03,21,53.10
2006,12,15,03,22,46.70
2006,12,15,03,23,33.80
2006,12,15,03,24,53.10
2006,12,15,03,25,64.40
2006,12,15,03,26,40.20
2006,12,15,03,27,48.30
2006,12,15,03,28,43.50
2006,12,15,03,29,40.20
2006,12,15,03,30,54.70
2006,12,15,03,31,64.40
2006,12,15,03,32,53.10
2006,12,15,03,33,37.00
2006,12,15,03,34,38.60
2006,12,15,03,35,53.10
2006,12,15,03,36,46.70
2006,12,15,03,37,41.80
2006,12,15,03,38,54.70
2006,12,15,03,39,53.10
2006,12,15,03,40,54.70
2006,12,15,03,41,48.30
2006,12,15,03,42,48.30
2006,12,15,03,43,33.80
2006,12,15,03,44,53.10
2006,12,15,03,45,53.10
2006,12,15,03,46,49.90
2006,12,15,03,47,57.90
2006,12,15,03,48,20.90
2006,12,15,03,49,38.60
2006,12,15,03,50,54.70
2006,12,15,03,51,59.50
2006,12,15,03,52,49.90
2006,12,15,03,53,61.20
2006,12,15,03,54,45.10
2006,12,15,03,55,37.00
2006,12,15,03,56,49.90
2006,12,15,03,57,29.00
2006,12,15,03,58,53.10
2006,12,15,03,59,57.90
2006,12,15,04,00,53.10
2006,12,15,04,01,45.10
2006,12,15,04,02,51.50
2006,12,15,04,03,62.70
2006,12,15,04,04,53.10
2006,12,15,04,05,40.20
2006,12,15,04,06,41.80
2006,12,15,04,07,53.10
2006,12,15,04,08,33.80
2006,12,15,04,09,46.70
2006,12,15,04,10,45.10
2006,12,15,04,11,40.20
2006,12,15,04,12,45.10
2006,12,15,04,13,45.10
2006,12,15,04,14,45.10
2006,12,15,04,15,45.10
2006,12,15,04,16,53.10
2006,12,15,04,17,57.90
2006,12,15,04,18,53.10
2006,12,15,04,19,46.70
2006,12,15,04,20,43.50
2006,12,15,04,21,40.20
2006,12,15,04,22,35.40
2006,12,15,04,23,48.30
2006,12,15,04,24,40.20
2006,12,15,04,25,57.90
2006,12,15,04,26,53.10
2006,12,15,04,27,53.10
2006,12,15,04,28,56.30
2006,12,15,04,29,61.20
2006,12,15,04,30,49.90
2006,12,15,04,31,41.80
2006,12,15,04,32,45.10
2006,12,15,04,33,40.20
2006,12,15,04,34,41.80
2006,12,15,04,35,46.70
2006,12,15,04,36,43.50
2006,12,15,04,37,37.00
2006,12,15,04,38,25.70
2006,12,15,04,39,53.10
2006,12,15,04,40,51.50
2006,12,15,04,41,37.00
2006,12,15,04,42,53.10
2006,12,15,04,43,38.60
2006,12,15,04,44,51.50
2006,12,15,04,45,53.10
2006,12,15,04,46,37.00
2006,12,15,04,47,27.40
2006,12,15,04,48,43.50
2006,12,15,04,49,45.10
2006,12,15,04,50,48.30
2006,12,15,04,51,33.80
2006,12,15,04,52,37.00
2006,12,15,04,53,33.80
2006,12,15,04,54,43.50
2006,12,15,04,55,24.20
2006,12,15,04,56,24.20
2006,12,15,04,57,32.20
2006,12,15,04,58,25.70
2006,12,15,04,59,6.40
2006,12,15,05,00,30.60
2006,12,15,05,01,33.80
2006,12,15,05,02,45.10
2006,12,15,05,03,32.20
2006,12,15,05,04,41.80
2006,12,15,05,05,41.80
2006,12,15,05,06,43.50
2006,12,15,05,07,46.70
2006,12,15,05,08,22.50
2006,12,15,05,09,32.20
2006,12,15,05,10,20.90
2006,12,15,05,11,29.00
2006,12,15,05,12,41.80
2006,12,15,05,13,33.80
2006,12,15,05,14,40.20
2006,12,15,05,15,43.50
2006,12,15,05,16,25.70
2006,12,15,05,17,38.60
2006,12,15,05,18,29.00
2006,12,15,05,19,35.40
2006,12,15,05,20,45.10
2006,12,15,05,21,40.20
2006,12,15,05,22,29.00
2006,12,15,05,23,35.40
2006,12,15,05,24,30.60
2006,12,15,05,25,29.00
2006,12,15,05,26,38.60
2006,12,15,05,27,29.00
2006,12,15,05,28,19.30
2006,12,15,05,29,27.40
2006,12,15,05,30,30.60
2006,12,15,05,31,35.40
2006,12,15,05,32,35.40
2006,12,15,05,33,22.50
2006,12,15,05,34,27.40
2006,12,15,05,35,29.00
2006,12,15,05,36,32.20
2006,12,15,05,37,32.20
2006,12,15,05,38,19.30
2006,12,15,05,39,32.20
2006,12,15,05,40,29.00
2006,12,15,05,41,38.60
2006,12,15,05,42,33.80
2006,12,15,05,43,29.00
2006,12,15,05,44,37.00
2006,12,15,05,45,35.40
2006,12,15,05,46,38.60
2006,12,15,05,47,33.80
2006,12,15,05,48,24.20
2006,12,15,05,49,38.60
2006,12,15,05,50,38.60
2006,12,15,05,51,49.90
2006,12,15,05,52,43.50
2006,12,15,05,53,38.60
2006,12,15,05,54,35.40
2006,12,15,05,55,38.60
2006,12,15,05,56,37.00
2006,12,15,05,57,45.10
2006,12,15,05,58,33.80
2006,12,15,05,59,49.90
2006,12,15,06,00,32.20
2006,12,15,06,01,24.20
2006,12,15,06,02,25.70
2006,12,15,06,03,43.50
2006,12,15,06,04,38.60
2006,12,15,06,05,24.20
2006,12,15,06,06,25.70
2006,12,15,06,07,29.00
2006,12,15,06,08,30.60
2006,12,15,06,09,25.70
2006,12,15,06,10,35.40
2006,12,15,06,11,24.20
2006,12,15,06,12,40.20
2006,12,15,06,13,30.60
2006,12,15,06,14,38.60
2006,12,15,06,15,29.00
2006,12,15,06,16,24.20
2006,12,15,06,17,32.20
2006,12,15,06,18,29.00
2006,12,15,06,19,40.20
2006,12,15,06,20,24.20
2006,12,15,06,21,25.70
2006,12,15,06,22,24.20
2006,12,15,06,23,24.20
2006,12,15,06,24,33.80
2006,12,15,06,25,20.90
2006,12,15,06,26,27.40
2006,12,15,06,27,30.60
2006,12,15,06,28,35.40
2006,12,15,06,29,40.20
2006,12,15,06,30,35.40
2006,12,15,06,31,33.80
2006,12,15,06,32,25.70
2006,12,15,06,33,17.70
2006,12,15,06,34,24.20
2006,12,15,06,35,40.20
2006,12,15,06,36,33.80
2006,12,15,06,37,33.80
2006,12,15,06,38,45.10
2006,12,15,06,39,33.80
2006,12,15,06,40,24.20
2006,12,15,06,41,46.70
2006,12,15,06,42,24.20
2006,12,15,06,43,29.00
2006,12,15,06,44,27.40
2006,12,15,06,45,24.20
2006,12,15,06,46,43.50
2006,12,15,06,47,33.80
2006,12,15,06,48,32.20
2006,12,15,06,49,38.60
2006,12,15,06,50,32.20
2006,12,15,06,51,40.20
2006,12,15,06,52,25.70
2006,12,15,06,53,11.30
2006,12,15,06,54,27.40
2006,12,15,06,55,33.80
2006,12,15,06,56,27.40
2006,12,15,06,57,25.70
2006,12,15,06,58,20.90
2006,12,15,06,59,22.50
2006,12,15,07,00,22.50
2006,12,15,07,01,30.60
2006,12,15,07,02,38.60
2006,12,15,07,03,25.70
2006,12,15,07,04,22.50
2006,12,15,07,05,25.70
2006,12,15,07,06,22.50
2006,12,15,07,07,16.10
2006,12,15,07,08,22.50
2006,12,15,07,09,33.80
2006,12,15,07,10,19.30
2006,12,15,07,11,33.80
2006,12,15,07,12,38.60
2006,12,15,07,13,25.70
2006,12,15,07,14,40.20
2006,12,15,07,15,35.40
2006,12,15,07,16,30.60
2006,12,15,07,17,24.20
2006,12,15,07,18,30.60
2006,12,15,07,19,30.60
2006,12,15,07,20,40.20
2006,12,15,07,21,16.10
2006,12,15,07,22,33.80
2006,12,15,07,23,29.00
2006,12,15,07,24,30.60
2006,12,15,07,25,30.60
2006,12,15,07,26,35.40
2006,12,15,07,27,37.00
2006,12,15,07,28,40.20
2006,12,15,07,29,29.00
2006,12,15,07,30,24.20
2006,12,15,07,31,45.10
2006,12,15,07,32,35.40
2006,12,15,07,33,33.80
2006,12,15,07,34,33.80
2006,12,15,07,35,35.40
2006,12,15,07,36,29.00
2006,12,15,07,37,29.00
2006,12,15,07,38,32.20
2006,12,15,07,39,20.90
2006,12,15,07,40,24.20
2006,12,15,07,41,29.00
2006,12,15,07,42,35.40
2006,12,15,07,43,35.40
2006,12,15,07,44,30.60
2006,12,15,07,45,38.60
2006,12,15,07,46,32.20
2006,12,15,07,47,40.20
2006,12,15,07,48,17.70
2006,12,15,07,49,35.40
2006,12,15,07,50,33.80
2006,12,15,07,51,25.70
2006,12,15,07,52,27.40
2006,12,15,07,53,24.20
2006,12,15,07,54,27.40
2006,12,15,07,55,27.40
2006,12,15,07,56,29.00
2006,12,15,07,57,43.50
2006,12,15,07,58,27.40
2006,12,15,07,59,33.80
2006,12,15,08,00,33.80
2006,12,15,08,01,30.60
2006,12,15,08,02,24.20
2006,12,15,08,03,24.20
2006,12,15,08,04,32.20
2006,12,15,08,05,27.40
2006,12,15,08,06,17.70
2006,12,15,08,07,24.20
2006,12,15,08,08,27.40
2006,12,15,08,09,22.50
2006,12,15,08,10,27.40
2006,12,15,08,11,17.70
2006,12,15,08,12,20.90
2006,12,15,08,13,25.70
2006,12,15,08,14,17.70
2006,12,15,08,15,14.50
2006,12,15,08,16,19.30
2006,12,15,08,17,20.90
2006,12,15,08,18,43.50
2006,12,15,08,19,32.20
2006,12,15,08,20,35.40
2006,12,15,08,21,20.90
2006,12,15,08,22,27.40
2006,12,15,08,23,24.20
2006,12,15,08,24,19.30
2006,12,15,08,25,33.80
2006,12,15,08,26,27.40
2006,12,15,08,27,19.30
2006,12,15,08,28,22.50
2006,12,15,08,29,22.50
2006,12,15,08,30,22.50
2006,12,15,08,31,22.50
2006,12,15,08,32,30.60
2006,12,15,08,33,24.20
2006,12,15,08,34,22.50
2006,12,15,08,35,17.70
2006,12,15,08,36,19.30
2006,12,15,08,37,27.40
2006,12,15,08,38,25.70
2006,12,15,08,39,19.30
2006,12,15,08,40,9.60
2006,12,15,08,41,9.60
2006,12,15,08,42,8.10
2006,12,15,08,43,20.90
2006,12,15,08,44,8.10
2006,12,15,08,45,6.40
2006,12,15,08,46,9.60
2006,12,15,08,47,8.10
2006,12,15,08,48,9.60
2006,12,15,08,49,11.30
2006,12,15,08,50,8.10
2006,12,15,08,51,16.10
2006,12,15,08,52,19.30
2006,12,15,08,53,24.20
2006,12,15,08,54,16.10
2006,12,15,08,55,8.10
2006,12,15,08,56,8.10
2006,12,15,08,57,8.10
2006,12,15,08,58,17.70
2006,12,15,08,59,14.50
2006,12,15,09,00,14.50
2006,12,15,09,01,19.30
2006,12,15,09,02,19.30
2006,12,15,09,03,19.30
2006,12,15,09,04,16.10
2006,12,15,09,05,17.70
2006,12,15,09,06,20.90
2006,12,15,09,07,22.50
2006,12,15,09,08,22.50
2006,12,15,09,09,19.30
2006,12,15,09,10,20.90
2006,12,15,09,11,22.50
2006,12,15,09,12,27.40
2006,12,15,09,13,25.70
2006,12,15,09,14,20.90
2006,12,15,09,15,20.90
2006,12,15,09,16,20.90
2006,12,15,09,17,17.70
2006,12,15,09,18,20.90
2006,12,15,09,19,24.20
2006,12,15,09,20,19.30
2006,12,15,09,21,19.30
2006,12,15,09,22,19.30
2006,12,15,09,23,19.30
2006,12,15,09,24,25.70
2006,12,15,09,25,27.40
2006,12,15,09,26,14.50
2006,12,15,09,27,11.30
2006,12,15,09,28,19.30
2006,12,15,09,29,17.70
2006,12,15,09,30,12.90
2006,12,15,09,31,27.40
2006,12,15,09,32,25.70
2006,12,15,09,33,19.30
2006,12,15,09,34,17.70
2006,12,15,09,35,14.50
2006,12,15,09,36,11.30
2006,12,15,09,37,17.70
2006,12,15,09,38,19.30
2006,12,15,09,39,22.50
2006,12,15,09,40,24.20
2006,12,15,09,41,27.40
2006,12,15,09,42,22.50
2006,12,15,09,43,17.70
2006,12,15,09,44,24.20
2006,12,15,09,45,20.90
2006,12,15,09,46,24.20
2006,12,15,09,47,19.30
2006,12,15,09,48,22.50
2006,12,15,09,49,20.90
2006,12,15,09,50,16.10
2006,12,15,09,51,12.90
2006,12,15,09,52,19.30
2006,12,15,09,53,16.10
2006,12,15,09,54,20.90
2006,12,15,09,55,22.50
2006,12,15,09,56,17.70
2006,12,15,09,57,20.90
2006,12,15,09,58,19.30
2006,12,15,09,59,12.90
2006,12,15,10,00,12.90
2006,12,15,10,01,16.10
2006,12,15,10,02,22.50
2006,12,15,10,03,19.30
2006,12,15,10,04,14.50
2006,12,15,10,05,16.10
2006,12,15,10,06,19.30
2006,12,15,10,07,16.10
2006,12,15,10,08,16.10
2006,12,15,10,09,14.50
2006,12,15,10,10,16.10
2006,12,15,10,11,16.10
2006,12,15,10,12,16.10
2006,12,15,10,13,16.10
2006,12,15,10,14,19.30
2006,12,15,10,15,16.10
2006,12,15,10,16,6.40
2006,12,15,10,17,17.70
2006,12,15,10,18,24.20
2006,12,15,10,19,22.50
2006,12,15,10,20,17.70
2006,12,15,10,21,11.30
2006,12,15,10,22,12.90
2006,12,15,10,23,12.90
2006,12,15,10,24,12.90
2006,12,15,10,25,11.30
2006,12,15,10,26,17.70
2006,12,15,10,27,11.30
2006,12,15,10,28,16.10
2006,12,15,10,29,19.30
2006,12,15,10,30,16.10
2006,12,15,10,31,9.60
2006,12,15,10,32,14.50
2006,12,15,10,33,16.10
2006,12,15,10,34,11.30
2006,12,15,10,35,17.70
2006,12,15,10,36,22.50
2006,12,15,10,37,25.70
2006,12,15,10,38,20.90
2006,12,15,10,39,11.30
2006,12,15,10,40,17.70
2006,12,15,10,41,19.30
2006,12,15,10,42,19.30
2006,12,15,10,43,19.30
2006,12,15,10,44,14.50
2006,12,15,10,45,33.80
2006,12,15,10,46,25.70
2006,12,15,10,47,20.90
2006,12,15,10,48,24.20
2006,12,15,10,49,20.90
2006,12,15,10,50,24.20
2006,12,15,10,51,17.70
2006,12,15,10,52,19.30
2006,12,15,10,53,9.60
2006,12,15,10,54,14.50
2006,12,15,10,55,22.50
2006,12,15,10,56,17.70
2006,12,15,10,57,16.10
2006,12,15,10,58,19.30
2006,12,15,10,59,16.10
2006,12,15,11,00,19.30
2006,12,15,11,01,24.20
2006,12,15,11,02,24.20
2006,12,15,11,03,19.30
2006,12,15,11,04,22.50
2006,12,15,11,05,9.60
2006,12,15,11,06,14.50
2006,12,15,11,07,19.30
2006,12,15,11,08,32.20
2006,12,15,11,09,25.70
2006,12,15,11,10,20.90
2006,12,15,11,11,14.50
2006,12,15,11,12,25.70
2006,12,15,11,13,19.30
2006,12,15,11,14,16.10
2006,12,15,11,15,14.50
2006,12,15,11,16,17.70
2006,12,15,11,17,16.10
2006,12,15,11,18,9.60
2006,12,15,11,19,12.90
2006,12,15,11,20,17.70
2006,12,15,11,21,16.10
2006,12,15,11,22,16.10
2006,12,15,11,23,27.40
2006,12,15,11,24,24.20
2006,12,15,11,25,14.50
2006,12,15,11,26,11.30
2006,12,15,11,27,12.90
2006,12,15,11,28,17.70
2006,12,15,11,29,17.70
2006,12,15,11,30,14.50
2006,12,15,11,31,9.60
2006,12,15,11,32,11.30
2006,12,15,11,33,19.30
2006,12,15,11,34,17.70
2006,12,15,11,35,4.80
2006,12,15,11,36,3.20
2006,12,15,11,37,11.30
2006,12,15,11,38,8.10
2006,12,15,11,39,9.60
2006,12,15,11,40,9.60
2006,12,15,11,41,9.60
2006,12,15,11,42,12.90
2006,12,15,11,43,12.90
2006,12,15,11,44,11.30
2006,12,15,11,45,14.50
2006,12,15,11,46,9.60
2006,12,15,11,47,16.10
2006,12,15,11,48,19.30
2006,12,15,11,49,20.90
2006,12,15,11,50,19.30
2006,12,15,11,51,17.70
2006,12,15,11,52,17.70
2006,12,15,11,53,11.30
2006,12,15,11,54,8.10
2006,12,15,11,55,11.30
2006,12,15,11,56,20.90
2006,12,15,11,57,14.50
2006,12,15,11,58,11.30
2006,12,15,11,59,19.30
2006,12,15,12,00,14.50
2006,12,15,12,01,14.50
2006,12,15,12,02,16.10
2006,12,15,12,03,12.90
2006,12,15,12,04,11.30
2006,12,15,12,05,9.60
2006,12,15,12,06,17.70
2006,12,15,12,07,12.90
2006,12,15,12,08,11.30
2006,12,15,12,09,19.30
2006,12,15,12,10,9.60
2006,12,15,12,11,17.70
2006,12,15,12,12,20.90
2006,12,15,12,13,16.10
2006,12,15,12,14,14.50
2006,12,15,12,15,8.10
2006,12,15,12,16,6.40
2006,12,15,12,17,22.50
2006,12,15,12,18,22.50
2006,12,15,12,19,16.10
2006,12,15,12,20,9.60
2006,12,15,12,21,14.50
2006,12,15,12,22,14.50
2006,12,15,12,23,19.30
2006,12,15,12,24,19.30
2006,12,15,12,25,19.30
2006,12,15,12,26,11.30
2006,12,15,12,27,11.30
2006,12,15,12,28,11.30
2006,12,15,12,29,17.70
2006,12,15,12,30,16.10
2006,12,15,12,31,19.30
2006,12,15,12,32,14.50
2006,12,15,12,33,11.30
2006,12,15,12,34,9.60
2006,12,15,12,35,14.50
2006,12,15,12,36,11.30
2006,12,15,12,37,9.60
2006,12,15,12,38,9.60
2006,12,15,12,39,22.50
2006,12,15,12,40,20.90
2006,12,15,12,41,22.50
2006,12,15,12,42,17.70
2006,12,15,12,43,12.90
2006,12,15,12,44,12.90
2006,12,15,12,45,12.90
2006,12,15,12,46,14.50
2006,12,15,12,47,11.30
2006,12,15,12,48,11.30
2006,12,15,12,49,6.40
2006,12,15,12,50,24.20
2006,12,15,12,51,25.70
2006,12,15,12,52,27.40
2006,12,15,12,53,24.20
2006,12,15,12,54,16.10
2006,12,15,12,55,11.30
2006,12,15,12,56,17.70
2006,12,15,12,57,19.30
2006,12,15,12,58,20.90
2006,12,15,12,59,17.70
2006,12,15,13,00,16.10
2006,12,15,13,01,19.30
2006,12,15,13,02,19.30
2006,12,15,13,03,24.20
2006,12,15,13,04,24.20
2006,12,15,13,05,22.50
2006,12,15,13,06,25.70
2006,12,15,13,07,19.30
2006,12,15,13,08,19.30
2006,12,15,13,09,19.30
2006,12,15,13,10,22.50
2006,12,15,13,11,20.90
2006,12,15,13,12,16.10
2006,12,15,13,13,16.10
2006,12,15,13,14,22.50
2006,12,15,13,15,25.70
2006,12,15,13,16,20.90
2006,12,15,13,17,19.30
2006,12,15,13,18,19.30
2006,12,15,13,19,16.10
2006,12,15,13,20,12.90
2006,12,15,13,21,19.30
2006,12,15,13,22,22.50
2006,12,15,13,23,25.70
2006,12,15,13,24,20.90
2006,12,15,13,25,19.30
2006,12,15,13,26,20.90
2006,12,15,13,27,20.90
2006,12,15,13,28,16.10
2006,12,15,13,29,17.70
2006,12,15,13,30,17.70
2006,12,15,13,31,19.30
2006,12,15,13,32,16.10
2006,12,15,13,33,22.50
2006,12,15,13,34,27.40
2006,12,15,13,35,29.00
2006,12,15,13,36,17.70
2006,12,15,13,37,20.90
2006,12,15,13,38,25.70
2006,12,15,13,39,19.30
2006,12,15,13,40,22.50
2006,12,15,13,41,22.50
2006,12,15,13,42,29.00
2006,12,15,13,43,29.00
2006,12,15,13,44,27.40
2006,12,15,13,45,24.20
2006,12,15,13,46,22.50
2006,12,15,13,47,25.70
2006,12,15,13,48,33.80
2006,12,15,13,49,29.00
2006,12,15,13,50,27.40
2006,12,15,13,51,38.60
2006,12,15,13,52,33.80
2006,12,15,13,53,33.80
2006,12,15,13,54,22.50
2006,12,15,13,55,27.40
2006,12,15,13,56,27.40
2006,12,15,13,57,22.50
2006,12,15,13,58,30.60
2006,12,15,13,59,29.00
2006,12,15,14,00,30.60
2006,12,15,14,01,30.60
2006,12,15,14,02,24.20
2006,12,15,14,03,22.50
2006,12,15,14,04,20.90
2006,12,15,14,05,24.20
2006,12,15,14,06,16.10
2006,12,15,14,07,22.50
2006,12,15,14,08,22.50
2006,12,15,14,09,19.30
2006,12,15,14,10,25.70
2006,12,15,14,11,22.50
2006,12,15,14,12,24.20
2006,12,15,14,13,19.30
2006,12,15,14,14,24.20
2006,12,15,14,15,25.70
2006,12,15,14,16,27.40
2006,12,15,14,17,20.90
2006,12,15,14,18,17.70
2006,12,15,14,19,19.30
2006,12,15,14,20,20.90
2006,12,15,14,21,20.90
2006,12,15,14,22,27.40
2006,12,15,14,23,22.50
2006,12,15,14,24,22.50
2006,12,15,14,25,19.30
2006,12,15,14,26,22.50
2006,12,15,14,27,27.40
2006,12,15,14,28,20.90
2006,12,15,14,29,20.90
2006,12,15,14,30,22.50
2006,12,15,14,31,20.90
2006,12,15,14,32,14.50
2006,12,15,14,33,16.10
2006,12,15,14,34,12.90
2006,12,15,14,35,16.10
2006,12,15,14,36,14.50
2006,12,15,14,37,11.30
2006,12,15,14,38,11.30
2006,12,15,14,39,9.60
2006,12,15,14,40,11.30
2006,12,15,14,41,11.30
2006,12,15,14,42,11.30
2006,12,15,14,43,14.50
2006,12,15,14,44,9.60
2006,12,15,14,45,9.60
2006,12,15,14,46,14.50
2006,12,15,14,47,12.90
2006,12,15,14,48,16.10
2006,12,15,14,49,9.60
2006,12,15,14,50,3.20
2006,12,15,14,51,9.60
2006,12,15,14,52,6.40
2006,12,15,14,53,4.80
2006,12,15,14,54,3.20
2006,12,15,14,55,3.20
2006,12,15,14,56,4.80
2006,12,15,14,57,4.80
2006,12,15,14,58,9.60
2006,12,15,14,59,9.60
2006,12,15,15,00,3.20
2006,12,15,15,01,9.60
2006,12,15,15,02,14.50
2006,12,15,15,03,17.70
2006,12,15,15,04,6.40
2006,12,15,15,05,6.40
2006,12,15,15,06,11.30
2006,12,15,15,07,8.10
2006,12,15,15,08,3.20
2006,12,15,15,09,1.60
2006,12,15,15,10,9.60
2006,12,15,15,11,8.10
2006,12,15,15,12,8.10
2006,12,15,15,13,8.10
2006,12,15,15,14,14.50
2006,12,15,15,15,6.40
2006,12,15,15,16,6.40
2006,12,15,15,17,4.80
2006,12,15,15,18,3.20
2006,12,15,15,19,6.40
2006,12,15,15,20,3.20
2006,12,15,15,21,4.80
2006,12,15,15,22,1.60
2006,12,15,15,23,4.80
2006,12,15,15,24,6.40
2006,12,15,15,25,8.10
2006,12,15,15,26,6.40
2006,12,15,15,27,8.10
2006,12,15,15,28,11.30
2006,12,15,15,29,8.10
2006,12,15,15,30,6.40
2006,12,15,15,31,4.80
2006,12,15,15,32,6.40
2006,12,15,15,33,8.10
2006,12,15,15,34,6.40
2006,12,15,15,35,3.20
2006,12,15,15,36,4.80
2006,12,15,15,37,6.40
2006,12,15,15,38,4.80
2006,12,15,15,39,8.10
2006,12,15,15,40,4.80
2006,12,15,15,41,8.10
2006,12,15,15,42,6.40
2006,12,15,15,43,6.40
2006,12,15,15,44,8.10
2006,12,15,15,45,4.80
2006,12,15,15,46,4.80
2006,12,15,15,47,6.40
2006,12,15,15,48,4.80
2006,12,15,15,49,6.40
2006,12,15,15,50,9.60
2006,12,15,15,51,8.10
2006,12,15,15,52,6.40
2006,12,15,15,53,6.40
2006,12,15,15,54,1.60
2006,12,15,15,55,3.20
2006,12,15,15,56,9.60
2006,12,15,15,57,3.20
2006,12,15,15,58,6.40
2006,12,15,15,59,3.20
2006,12,15,16,00,3.20
2006,12,15,16,01,1.60
2006,12,15,16,02,1.60
2006,12,15,16,03,3.20
2006,12,15,16,04,3.20
2006,12,15,16,05,0.00
2006,12,15,16,06,3.20
2006,12,15,16,07,3.20
2006,12,15,16,08,0.00
2006,12,15,16,09,1.60
2006,12,15,16,10,1.60
2006,12,15,16,11,0.00
2006,12,15,16,12,0.00
2006,12,15,16,13,0.00
2006,12,15,16,14,0.00
2006,12,15,16,15,0.00
2006,12,15,16,16,0.00
2006,12,15,16,17,3.20
2006,12,15,16,18,3.20
2006,12,15,16,19,1.60
2006,12,15,16,20,0.00
2006,12,15,16,21,1.60
2006,12,15,16,22,1.60
2006,12,15,16,23,0.00
2006,12,15,16,24,0.00
2006,12,15,16,25,1.60
2006,12,15,16,26,1.60
2006,12,15,16,27,0.00
2006,12,15,16,28,1.60
2006,12,15,16,29,1.60
2006,12,15,16,30,3.20
2006,12,15,16,31,4.80
2006,12,15,16,32,4.80
2006,12,15,16,33,8.10
2006,12,15,16,34,6.40
2006,12,15,16,35,8.10
2006,12,15,16,36,6.40
2006,12,15,16,37,16.10
2006,12,15,16,38,9.60
2006,12,15,16,39,6.40
2006,12,15,16,40,4.80
2006,12,15,16,41,6.40
2006,12,15,16,42,3.20
2006,12,15,16,43,6.40
2006,12,15,16,44,6.40
2006,12,15,16,45,3.20
2006,12,15,16,46,4.80
2006,12,15,16,47,14.50
2006,12,15,16,48,9.60
2006,12,15,16,49,6.40
2006,12,15,16,50,6.40
2006,12,15,16,51,9.60
2006,12,15,16,52,9.60
2006,12,15,16,53,9.60
2006,12,15,16,54,8.10
2006,12,15,16,55,8.10
2006,12,15,16,56,8.10
2006,12,15,16,57,8.10
2006,12,15,16,58,8.10
2006,12,15,16,59,4.80
2006,12,15,17,00,9.60
2006,12,15,17,01,4.80
2006,12,15,17,02,6.40
2006,12,15,17,03,6.40
2006,12,15,17,04,4.80
2006,12,15,17,05,3.20
2006,12,15,17,06,1.60
2006,12,15,17,07,3.20
2006,12,15,17,08,3.20
2006,12,15,17,09,1.60
2006,12,15,17,10,3.20
2006,12,15,17,11,1.60
2006,12,15,17,12,1.60
2006,12,15,17,13,3.20
2006,12,15,17,14,3.20
2006,12,15,17,15,0.00
2006,12,15,17,16,4.80
2006,12,15,17,17,1.60
2006,12,15,17,18,3.20
2006,12,15,17,19,0.00
2006,12,15,17,20,1.60
2006,12,15,17,21,3.20
2006,12,15,17,22,1.60
2006,12,15,17,23,0.00
2006,12,15,17,24,1.60
2006,12,15,17,25,3.20
2006,12,15,17,26,1.60
2006,12,15,17,27,3.20
2006,12,15,17,28,3.20